#timestamp,LO_Frequency,Hit,StdDev 
1559710815.1,286046997.2,N
1559710835.9,286046995.8,N
1559710855.7,286046996.0,N
1559710875.5,286046995.1,N
1559710895.4,286046994.9,N
1559710915.2,286046996.2,N
1559710935.0,286046995.3,N
1559710936.0,286046995.3,N
1559710955.8,286046997.8,N
1559710975.6,286046996.7,N
1559710995.5,286046997.5,N
1559711015.3,286046999.1,N
1559711035.1,286046998.2,N
1559711055.9,286047001.2,N
1559711075.7,286047000.4,N
1559711095.5,286047000.4,N
1559711115.4,286047000.8,N
1559711135.2,286047000.5,N
1559711155.1,286047000.5,N
1559711156.0,286047000.5,N
1559711175.8,286046998.3,N
1559711195.6,286046997.5,N
1559711215.5,286046998.0,N
1559711235.3,286046996.9,N
1559711255.2,286046995.3,N
1559711275.9,286046995.5,N
1559711295.7,286046995.3,N
1559711315.6,286047011.9,Y
1559711335.4,286046999.3,P
1559711355.2,286046998.1,N
1559711375.1,286046998.8,N
1559711376.0,286046998.8,N
1559711395.8,286047000.6,N
1559711415.7,286047001.2,N
1559711435.5,286046998.6,N
1559711455.3,286047001.0,N
1559711475.2,286046998.5,N
1559711495.0,286047001.0,N
1559711495.9,286047001.0,N
1559711515.7,286047002.0,N
1559711535.6,286047002.2,N
1559711555.4,286047002.8,N
1559711575.3,286047000.8,N
1559711595.1,286046998.9,N
1559711596.0,286046998.9,N
1559711615.8,286046998.4,N
1559711635.7,286046998.9,N
1559711655.5,286046999.0,N
1559711675.3,286046999.6,N
1559711695.2,286047001.2,N
1559711715.0,286047000.5,N
1559711715.9,286047000.5,N
1559711735.8,286047000.1,N
1559711755.6,286046999.8,N
1559711775.4,286047000.0,N
1559711795.3,286047002.6,N
1559711815.1,286047001.1,N
1559711835.8,286047001.2,N
1559711855.7,286046999.9,N
1559711875.5,286046998.6,N
1559711895.4,286047000.7,N
1559711915.2,286046998.6,N
1559711935.0,286047000.5,N
1559711935.9,286047000.5,N
1559711955.8,286047000.4,N
1559711975.6,286046998.1,N
1559711995.4,286046998.6,N
1559712015.3,286046997.2,N
1559712035.1,286046995.8,Y
1559712055.9,286046996.1,P
1559712075.7,286046997.4,N
1559712095.5,286046997.0,N
1559712115.4,286046996.9,N
1559712135.2,286046997.2,N
1559712155.0,286046997.1,N
1559712156.0,286046997.1,N
1559712175.8,286046997.8,N
1559712195.6,286046995.4,Y
1559712215.5,286046998.5,P
1559712235.3,286047000.7,N
1559712255.1,286046998.5,N
1559712275.9,286046999.1,N
1559712295.7,286047000.8,N
1559712315.6,286046998.3,N
1559712335.4,286046999.0,N
1559712355.2,286047002.2,N
1559712375.1,286047000.6,N
1559712376.0,286047000.6,N
1559712395.8,286047000.9,N
1559712415.6,286046999.4,N
1559712435.5,286046999.2,N
1559712455.3,286046998.5,N
1559712475.2,286046998.9,N
1559712495.9,286047000.9,N
1559712515.7,286046999.7,N
1559712535.6,286046999.7,N
1559712555.4,286047000.2,N
1559712575.2,286047002.2,N
1559712595.1,286047002.3,N
1559712596.0,286047002.3,N
1559712615.8,286047000.6,N
1559712635.7,286046999.0,N
1559712655.5,286046998.9,N
1559712675.3,286046999.0,N
1559712695.2,286046999.6,N
1559712715.0,286046996.8,N
1559712715.9,286046996.8,N
1559712735.7,286046999.5,N
1559712755.6,286046997.5,N
1559712775.4,286046996.9,N
1559712795.3,286046997.6,N
1559712815.1,286046996.6,N
1559712816.0,286046996.6,N
1559712835.8,286046994.9,Y
1559712855.7,286046998.8,P
1559712875.5,286046997.9,P
1559712895.3,286046996.7,P
1559712915.2,286046998.4,N
1559712935.0,286046999.3,N
1559712935.9,286046999.3,N
1559712955.8,286046998.6,N
1559712975.6,286046999.0,N
1559712995.4,286046998.5,N
1559713015.3,286046998.3,N
1559713035.1,286046999.3,N
1559713055.9,286046999.6,N
1559713075.7,286046999.2,N
1559713095.5,286046997.3,Y
1559713115.4,286046997.1,P
1559713135.2,286046995.5,P
1559713155.0,286046994.2,P
1559713155.9,286046994.2,Y
1559713175.8,286046997.6,P
1559713195.6,286046995.9,P
1559713215.5,286046994.1,P
1559713235.3,286046991.7,Y
1559713255.1,286046995.3,P
1559713275.9,286046995.4,P
1559713295.7,286046995.7,P
1559713315.6,286046995.0,Y
1559713335.4,286046998.7,P
1559713355.2,286047001.7,N
1559713375.1,286047001.9,N
1559713376.0,286047001.9,N
1559713395.8,286047001.5,N
1559713415.7,286047002.6,N
1559713435.5,286047002.5,N
1559713455.3,286046999.9,N
1559713475.2,286047002.7,N
1559713495.0,286047001.4,N
1559713495.9,286047001.4,N
1559713515.7,286047004.2,N
1559713535.6,286047001.7,N
1559713555.4,286047003.8,N
1559713575.3,286047004.8,N
1559713595.1,286047005.7,N
1559713596.0,286047005.7,N
1559713615.8,286047003.2,N
1559713635.7,286047003.5,N
1559713655.5,286047004.1,N
1559713675.3,286047004.0,N
1559713695.2,286047005.6,N
1559713715.0,286047006.8,N
1559713715.9,286047006.8,N
1559713735.8,286047005.1,N
1559713755.6,286047007.4,N
1559713775.4,286047007.5,N
1559713795.3,286047005.0,N
1559713815.1,286047005.4,N
1559713835.8,286047007.0,N
1559713855.7,286047007.0,Y
1559713875.5,286047001.3,P
1559713895.4,286047002.2,N
1559713915.2,286047000.0,N
1559713935.0,286047001.1,N
1559713935.9,286047001.1,N
1559713955.8,286047000.9,N
1559713975.6,286047000.7,N
1559713995.5,286047000.2,N
1559714015.3,286047001.6,N
1559714035.1,286047001.0,N
1559714055.9,286046995.1,Y
1559714075.7,286046994.3,P
1559714095.5,286046988.6,P
1559714115.4,286046987.3,N
1559714135.2,286046985.5,N
1559714155.1,286046986.6,N
1559714156.0,286046986.6,N
1559714175.8,286046984.3,N
1559714195.6,286046986.7,N
1559714215.5,286046985.3,N
1559714235.3,286046985.9,N
1559714255.2,286046985.0,Y
1559714275.9,286046995.5,P
1559714295.7,286046993.4,N
1559714315.6,286046991.9,N
1559714335.4,286046994.8,N
1559714355.3,286046991.8,Y
1559714375.1,286047000.0,P
1559714376.0,286047000.0,N
1559714395.8,286047001.0,N
